Regional Weather Roundup
Issued by NWS

Home | Current Version | Previous Version | Text Only | Print | Product List | Glossary Off
Versions: 1 2 3 4 5 6 7 8 9 10 11 12 13 14 15 16 17 18 19 20 21 22 23 24 25 26 27 28 29 30 31 32 33 34 35 36 37 38 39 40 41 42 43 44 45 46 47 48 49 50

000
ASUS43 KTOP 291608
RWRKS

WEATHER ROUNDUP FOR KANSAS
NATIONAL WEATHER SERVICE GOODLAND KS
1100 AM CDT THU JUN 29 2017

NOTE:  "FAIR" INDICATES FEW OR NO CLOUDS BELOW 12,000 FEET WITH NO
SIGNIFICANT WEATHER AND/OR OBSTRUCTIONS TO VISIBILITY.

KSZ001>006-013>018-027>032-041>047-291700-
NORTHWEST KANSAS

CITY           SKY/WX    TMP DP  RH WIND       PRES   REMARKS
GOODLAND       SUNNY     73  57  57 SE8       29.92R
HAYS           CLOUDY    69  62  78 E24G30    29.82S
HILL CITY      MOSUNNY   75  66  73 SE21G29   29.84R
RUSSELL        CLOUDY    73  62  68 SE29G37   29.80F
$$

KSZ061>065-074>080-084>089-291700-
SOUTHWEST KANSAS

CITY           SKY/WX    TMP DP  RH WIND       PRES   REMARKS
DODGE CITY     SUNNY     81  65  58 SE6       29.80R
ELKHART          N/A     77  55  46 N12         N/A
GARDEN CITY    SUNNY     80  62  54 NE9       29.81R
GREAT BEND     CLOUDY    69  65  86 E18       29.81F
LIBERAL        SUNNY     82  64  54 N12       29.80R
PRATT          CLOUDY    78  64  61 S7G16     29.79R
$$

KSZ066>073-081>083-090>101-291700-
SOUTHEAST KANSAS

CITY           SKY/WX    TMP DP  RH WIND       PRES   REMARKS
CHANUTE        CLOUDY    80  70  71 S8        29.87F
COFFEYVILLE    MOSUNNY   85  71  63 S18       29.83F
HUTCHINSON     CLOUDY    68  64  87 E16       29.83S
MEDICINE LODGE   N/A     83  66  56 S10G17    29.75F
NEWTON         CLOUDY    65  63  93 E10       29.86F
PARSONS        MOSUNNY   83  70  64 S15G24    29.85F
WICHITA INTL   PTSUNNY   81  70  69 SE10      29.80F
WICHITA JABRA  CLOUDY    75  70  84 E9        29.82F
WICHITA MCCONL PTSUNNY   80  68  67 S10       29.82F
WINFIELD       CLOUDY    84  72  67 S13       29.81F
$$

KSZ007>012-019>026-033>040-048>060-102>105-291700-
NORTHEAST KANSAS

CITY           SKY/WX    TMP DP  RH WIND       PRES   REMARKS
CONCORDIA      CLOUDY    73  65  75 SE23      29.79F
EMPORIA        CLOUDY    65  65 100 E9        29.87F
LAWRENCE       CLOUDY    69  68  96 SE10      29.86F
MANHATTAN      CLOUDY    71  67  87 SE15      29.81F
MARYSVILLE     PTSUNNY   70  64  83 S21G26    29.79S
OLATHE IND     CLOUDY    67  65  93 SE12G25   29.88S
OLATHE EXE     CLOUDY    66  66 100 SE8G23    29.85F
SALINA         CLOUDY    70  64  81 SE16      29.82F
TOPEKA BILLARD CLOUDY    69  67  93 SE14      29.84F
TOPEKA FORBES  CLOUDY    68  66  93 SE12G22   29.83F
$$




USA.gov is the U.S. government's official web portal to all federal, state and local government web resources and services.